Date,TemperatureHighF,TemperatureAvgF,TemperatureLowF,DewpointHighF,DewpointAvgF,DewpointLowF,HumidityHigh,HumidityAvg,HumidityLow,PressureMaxIn,PressureMinIn,WindSpeedMaxMPH,WindSpeedAvgMPH,GustSpeedMaxMPH,PrecipitationSumIn
2012-1-1,67,48,32,57,41,30,100,78,41,0.00,40.00,8,2,0,0.00
2012-1-2,49,39,25,30,20,13,82,48,27,0.00,40.00,9,5,0,0.00
2012-1-3,33,27,23,15,13,10,65,55,45,0.00,40.00,10,7,0,0.00
2012-1-4,48,34,25,20,15,11,64,47,29,0.00,40.00,7,2,0,0.00
2012-1-5,62,46,30,33,28,20,95,54,24,0.00,40.00,6,2,0,0.00
2012-1-6,70,52,36,34,30,23,70,45,21,0.00,40.00,5,1,0,0.00
2012-1-7,70,55,40,57,43,28,97,66,35,0.00,40.00,5,1,0,0.01
2012-1-8,56,52,49,53,50,48,100,95,85,0.00,40.00,4,0,0,0.07
2012-1-9,51,49,47,50,48,47,100,97,87,0.00,40.00,2,0,0,0.00
2012-1-10,59,52,44,54,50,44,100,94,80,0.00,40.00,3,0,0,0.01
2012-1-11,54,51,49,52,50,47,100,98,82,0.00,40.00,6,1,0,1.65
2012-1-12,58,50,36,50,45,20,100,85,59,0.00,40.00,7,3,0,0.00
2012-1-13,43,34,27,27,22,18,77,63,48,0.00,40.00,8,2,0,0.00
2012-1-14,49,38,29,30,23,19,74,56,38,0.00,40.00,6,2,0,0.00
2012-1-15,52,41,29,34,30,26,93,66,39,0.00,40.00,6,2,0,0.00
2012-1-16,48,36,26,37,31,25,97,83,61,0.00,40.00,4,0,0,0.00
2012-1-17,56,50,35,56,47,33,100,89,74,0.00,40.00,8,2,0,0.49
2012-1-18,55,44,34,55,33,27,99,67,43,0.00,40.00,8,3,0,0.00
2012-1-19,45,36,26,32,29,25,98,77,56,0.00,40.00,4,1,0,0.00
2012-1-20,52,40,30,45,37,27,100,88,62,0.00,40.00,3,0,0,0.25
2012-1-21,55,47,43,55,47,43,100,100,100,0.00,40.00,3,0,0,0.46
2012-1-22,51,44,39,50,43,38,100,96,92,0.00,40.00,5,1,0,0.00
2012-1-23,42,40,38,42,39,19,100,99,40,0.00,40.00,3,0,0,0.65
2012-1-24,69,48,35,52,40,35,100,80,41,0.00,40.00,4,1,0,0.00
2012-1-25,65,50,35,47,40,34,95,72,44,0.00,40.00,5,1,0,0.00
2012-1-26,61,53,49,60,51,45,100,92,83,0.00,40.00,6,0,0,0.15
2012-1-27,62,57,46,61,48,38,99,73,46,0.00,40.00,9,4,0,0.25
2012-1-28,65,46,32,44,35,19,100,69,37,0.00,40.00,10,3,0,0.00
2012-1-29,57,44,32,24,18,10,68,39,15,0.00,40.00,7,2,0,0.00
2012-1-30,62,43,27,34,26,22,89,58,25,0.00,40.00,6,1,0,0.00
2012-1-31,68,52,32,35,31,26,88,49,23,0.00,40.00,5,1,0,0.00
2012-2-1,64,57,49,55,47,34,99,72,42,0.00,40.00,5,1,0,0.11
2012-2-2,68,57,46,55,45,37,100,69,33,0.00,40.00,8,3,0,0.00
2012-2-3,62,47,34,41,35,32,98,68,35,0.00,40.00,5,1,0,0.00
2012-2-4,60,48,43,55,47,36,100,94,77,0.00,40.00,5,0,0,0.52
2012-2-5,71,56,43,58,51,42,100,86,52,0.00,40.00,5,2,0,0.02
2012-2-6,51,43,35,43,39,34,100,86,64,0.00,40.00,4,1,0,0.00
2012-2-7,62,48,34,43,38,32,100,71,36,0.00,40.00,5,1,0,0.00
2012-2-8,59,47,37,40,36,34,92,68,45,0.00,40.00,9,3,0,0.00
2012-2-9,50,42,32,35,32,29,94,69,53,0.00,40.00,8,3,0,0.00
2012-2-10,52,38,28,41,35,28,100,87,62,0.00,40.00,4,0,0,0.00
2012-2-11,46,36,23,38,24,8,80,63,41,0.00,40.00,12,6,0,0.00
2012-2-12,43,30,21,19,14,9,66,50,36,0.00,40.00,14,6,0,0.00
2012-2-13,52,40,27,27,21,17,70,47,30,0.00,40.00,7,2,0,0.00
2012-2-14,49,42,33,42,36,24,100,79,45,0.00,40.00,6,2,0,0.00
2012-2-15,64,48,33,45,36,30,100,70,29,0.00,40.00,6,1,0,0.00
2012-2-16,58,51,45,56,47,38,100,87,71,0.00,40.00,7,1,0,0.06
2012-2-17,69,56,48,48,41,29,92,61,23,0.00,40.00,6,2,0,0.00
2012-2-18,63,52,37,48,42,36,96,71,42,0.00,40.00,5,1,0,0.00
2012-2-19,51,44,37,49,43,36,100,98,88,0.00,40.00,8,2,0,0.38
2012-2-20,54,41,30,38,33,29,99,75,39,0.00,40.00,7,1,0,0.00
2012-2-21,55,41,28,44,36,27,99,84,56,0.00,40.00,7,2,0,0.00
2012-2-22,70,53,33,54,46,33,100,78,51,0.00,40.00,6,2,0,0.00
2012-2-23,75,61,44,60,53,44,100,80,53,0.00,40.00,9,2,0,0.00
2012-2-24,77,63,43,65,51,24,86,66,34,0.00,40.00,11,5,0,0.01
2012-2-25,57,46,38,27,22,17,56,39,23,0.00,40.00,7,3,0,0.00
2012-2-26,55,41,28,28,25,22,83,55,31,0.00,40.00,8,2,0,0.00
2012-2-27,65,48,32,53,41,28,99,79,58,0.00,40.00,5,1,0,0.00
2012-2-28,69,54,39,49,44,39,100,73,41,0.00,40.00,5,1,0,0.00
2012-2-29,66,59,54,63,57,50,100,93,76,0.00,40.00,8,2,0,0.12
2012-3-1,83,68,53,62,46,25,92,55,12,0.00,40.00,7,3,0,0.01
2012-3-2,58,52,47,54,47,37,100,83,54,0.00,40.00,3,0,0,0.10
2012-3-3,61,56,53,43,30,21,68,39,26,0.00,40.00,7,5,0,0.42
2012-3-4,51,44,39,38,26,23,61,48,39,0.00,40.00,7,2,0,0.00
2012-3-5,52,44,31,33,25,-5,83,49,12,0.00,40.00,9,4,0,0.00
2012-3-6,57,41,26,30,26,21,88,58,32,0.00,40.00,5,1,0,0.00
2012-3-7,64,50,35,50,41,29,85,74,57,0.00,40.00,7,1,0,0.00
2012-3-8,71,62,53,57,53,49,90,73,52,0.00,40.00,7,2,0,0.00
2012-3-9,61,56,51,58,42,30,100,63,35,0.00,40.00,9,5,0,0.38
2012-3-10,61,49,34,36,26,-100,89,49,22,0.00,40.00,5,2,0,0.00
2012-3-11,64,48,31,41,34,-100,96,64,35,0.00,40.00,6,1,0,0.00
2012-3-12,66,58,50,58,50,41,98,77,64,30.43,30.40,5,1,7,0.00
2012-3-13,80,65,55,62,59,55,100,82,49,30.40,30.26,7,1,13,0.03
2012-3-14,84,68,53,61,52,47,100,65,28,30.40,30.29,6,2,10,0.01
2012-3-15,84,66,51,55,51,48,93,63,31,30.42,30.30,9,2,13,0.02
2012-3-16,83,72,64,65,59,54,98,67,39,30.36,30.26,7,2,10,0.00
2012-3-19,81,71,63,60,58,56,84,65,42,30.28,30.23,3,0,6,0.00
2012-3-20,86,70,55,62,57,-100,98,69,38,30.34,30.24,8,2,12,0.14
2012-3-21,78,68,60,64,61,57,100,79,50,30.44,30.30,8,1,10,0.07
2012-3-22,76,66,58,66,60,-100,99,85,61,30.41,30.29,7,-6,13,0.01
2012-3-23,77,65,58,68,63,58,100,93,65,30.30,30.11,7,1,13,0.19
2012-3-24,77,67,61,66,57,44,100,75,33,30.10,29.87,8,2,17,0.73
2012-3-25,68,61,55,57,51,47,83,71,57,30.01,29.87,10,5,18,0.05
2012-3-26,83,70,61,53,50,46,69,52,29,30.21,30.00,8,4,15,0.71
2012-3-27,69,60,48,52,42,32,80,52,36,30.46,30.22,7,2,11,0.00
2012-3-28,83,63,45,61,51,43,95,68,35,30.37,30.05,9,2,16,0.00
2012-3-29,87,71,56,59,54,51,91,60,31,30.11,30.01,7,2,11,0.00
2012-3-30,81,65,53,63,54,42,100,73,31,30.15,30.00,7,1,11,0.09
2012-3-31,80,68,60,63,58,52,100,75,40,30.04,29.88,7,2,12,0.25
2012-4-1,82,66,54,63,55,49,96,70,33,30.03,29.89,7,2,10,0.01
2012-4-2,89,74,54,62,58,53,98,63,33,30.06,29.85,8,2,13,0.17
2012-4-3,78,66,58,66,61,58,99,88,63,30.16,30.03,6,1,9,0.11
2012-4-4,86,68,56,71,60,56,100,81,38,30.08,29.83,5,1,10,0.05
2012-4-5,77,62,52,68,60,52,100,93,63,29.95,29.82,6,1,9,0.65
2012-4-6,70,54,47,53,48,44,100,85,46,30.23,29.93,5,1,9,0.46
2012-4-7,71,55,38,50,42,34,100,70,32,30.41,30.23,7,1,12,1.05
2012-4-8,80,64,46,47,43,37,87,50,23,30.29,30.12,8,2,15,0.64
2012-4-9,78,66,52,43,33,16,61,32,10,30.24,30.02,10,3,18,0.73
2012-4-10,75,61,43,45,40,31,89,50,27,30.14,29.97,7,2,13,0.00
2012-4-11,64,54,42,33,28,24,66,38,25,30.27,30.02,13,4,22,0.00
2012-4-12,64,48,31,40,32,26,96,59,28,30.38,30.24,6,1,11,0.00
2012-4-13,70,53,36,46,38,33,99,65,27,30.41,30.27,5,1,9,0.00
2012-4-14,74,58,40,52,45,39,98,67,39,30.46,30.30,7,2,13,0.00
2012-4-15,80,63,46,63,54,-100,99,79,47,30.35,30.27,7,2,13,0.00
2012-4-16,83,71,62,64,61,58,97,74,49,30.32,30.24,7,2,13,0.00
2012-4-17,84,72,61,64,62,59,96,72,47,30.33,30.20,6,1,10,0.00
2012-4-18,58,55,52,58,54,52,100,97,90,30.31,30.21,4,0,9,1.43
2012-4-19,68,60,51,61,56,51,100,89,71,30.23,30.14,4,0,10,0.01
2012-4-20,73,62,56,61,58,56,100,88,62,30.18,29.99,5,1,10,1.42
2012-4-21,75,64,55,65,60,55,100,87,65,30.03,29.84,4,0,9,0.00
2012-4-22,67,58,47,58,50,-100,98,82,54,29.87,29.65,11,2,22,0.00
2012-4-23,56,49,44,39,33,27,75,56,35,29.89,29.74,11,4,32,0.00
2012-4-24,66,51,34,44,35,26,98,59,26,29.99,29.88,9,2,21,0.00
2012-4-25,73,58,46,62,52,43,100,83,55,30.11,29.98,4,1,7,0.03
2012-4-26,72,63,57,66,61,57,100,95,75,30.04,29.94,7,1,14,0.26
2012-4-27,81,69,59,68,63,59,100,84,59,30.21,30.01,4,1,7,0.03
2012-4-28,67,62,55,62,57,49,100,83,56,30.30,30.20,5,0,7,0.00
2012-4-29,84,66,50,69,59,-100,100,83,51,30.31,30.23,5,0,8,0.01
2012-4-30,85,70,57,70,65,57,100,84,55,30.36,30.21,6,1,11,0.00
2012-5-1,85,73,61,75,68,61,100,85,60,30.29,30.20,6,1,11,0.00
2012-5-2,88,75,64,71,67,64,100,80,48,30.28,30.22,5,1,9,0.00
2012-5-3,87,74,60,71,65,60,100,79,46,30.29,30.22,5,1,7,0.00
2012-5-4,85,73,64,69,66,64,99,80,54,30.24,30.10,5,1,8,0.00
2012-5-5,86,74,63,70,65,61,99,74,53,30.12,30.00,8,2,17,0.00
2012-5-6,81,71,61,68,63,-100,99,80,60,30.19,30.07,5,1,8,0.00
2012-5-7,79,70,65,67,65,63,96,84,58,30.21,30.07,4,0,9,0.00
2012-5-8,79,69,64,71,66,64,100,92,69,30.11,29.97,6,1,10,1.58
2012-5-9,67,63,54,66,61,51,100,93,65,30.04,29.87,6,1,13,0.06
2012-5-10,76,64,50,54,50,45,100,65,38,30.13,29.94,6,2,11,1.58
2012-5-11,75,61,46,56,50,45,100,71,41,30.37,30.13,5,1,7,0.03
2012-5-12,72,60,49,65,57,49,100,89,68,30.49,30.37,5,0,8,0.02
2012-5-13,64,59,55,63,58,-100,100,100,98,30.41,30.23,0,0,1,0.04
2012-5-14,78,66,59,69,64,59,100,93,72,30.22,30.02,4,0,6,0.42
2012-5-15,80,68,58,69,64,58,100,88,60,30.14,30.06,3,0,5,0.01
2012-5-16,83,70,59,68,64,59,100,84,52,30.13,30.03,6,1,8,0.39
2012-5-17,82,70,58,71,63,58,100,82,51,30.19,30.08,4,1,6,0.00
2012-5-18,77,68,59,66,62,59,100,85,61,30.25,30.16,6,1,10,0.04
2012-5-19,78,66,53,64,59,53,100,82,58,30.31,30.20,3,1,6,0.04
2012-5-20,83,67,53,62,55,-100,100,73,39,30.29,30.18,5,1,9,0.04
2012-5-21,85,68,54,66,60,54,100,77,44,30.21,30.04,5,1,9,0.00
2012-5-22,82,68,59,71,63,58,100,88,57,30.06,29.95,3,0,4,0.40
2012-5-23,76,66,62,70,65,62,100,96,78,30.09,29.98,3,0,4,0.30
2012-5-24,85,71,59,72,65,59,100,84,54,30.18,30.07,4,0,6,0.30
2012-5-25,89,75,63,72,67,63,100,81,47,30.28,30.17,4,0,7,0.23
2012-5-26,90,75,63,73,68,63,100,80,49,30.31,30.22,4,0,8,0.01
2012-5-27,86,75,66,70,68,66,100,81,53,30.30,30.21,6,1,9,0.04
2012-5-28,86,74,65,73,69,65,100,88,59,30.23,30.12,3,1,5,0.01
2012-5-29,83,74,67,74,71,67,100,92,68,30.18,29.99,4,0,6,0.69
2012-5-30,90,75,63,72,64,57,100,75,35,30.02,29.92,5,1,10,0.49
2012-5-31,88,74,59,73,65,56,97,76,46,30.05,29.95,4,0,7,0.68
2012-6-1,78,71,65,71,65,55,97,83,67,30.01,29.88,7,2,13,0.05
2012-6-2,77,66,57,55,52,49,84,62,42,30.09,29.96,8,3,16,0.03
2012-6-3,83,65,49,65,56,-100,99,77,51,30.13,30.00,6,1,8,0.04
2012-6-4,85,71,58,67,61,57,98,73,46,30.01,29.88,7,2,12,0.00
2012-6-5,75,68,62,66,63,60,100,86,68,30.01,29.88,5,1,10,0.14
2012-6-6,71,64,61,64,62,59,100,93,72,30.16,30.00,4,0,6,0.03
2012-6-7,79,68,59,66,62,59,100,83,53,30.21,30.14,3,0,5,0.13
2012-6-8,84,69,56,66,61,56,100,79,43,30.22,30.14,4,0,6,0.03
2012-6-9,84,71,57,69,64,57,100,80,53,30.24,30.15,6,1,8,0.00
2012-6-10,73,67,62,68,64,-100,99,93,80,30.30,30.19,3,0,5,0.03
2012-6-11,80,70,64,74,68,64,100,97,80,30.29,30.08,4,0,6,0.40
2012-6-12,85,74,69,78,72,68,100,92,68,30.15,30.03,5,1,12,0.13
2012-6-13,86,75,65,75,70,65,100,84,58,30.15,30.08,4,0,6,0.27
2012-6-14,81,73,67,68,64,58,100,75,54,30.30,30.15,5,1,8,0.13
2012-6-15,81,72,63,68,65,62,97,81,61,30.39,30.28,6,1,7,0.00
2012-6-16,82,69,57,67,62,57,100,80,56,30.44,30.28,5,1,5,0.00
2012-6-17,82,71,61,69,63,-100,99,79,55,30.34,30.16,3,0,5,0.00
2012-6-18,85,74,64,73,67,64,100,81,55,30.26,30.16,5,1,8,0.00
2012-6-19,89,74,61,70,66,61,100,79,46,30.34,30.26,3,1,7,0.00
2012-6-20,92,76,65,73,68,64,100,81,46,30.35,30.22,4,0,6,0.05
2012-6-21,92,77,67,76,70,67,100,83,45,30.26,30.09,4,1,6,0.05
2012-6-22,93,77,69,74,70,68,100,81,46,30.11,30.03,5,1,15,0.30
2012-6-23,89,77,66,77,71,66,100,84,55,30.16,30.06,4,0,6,0.01
2012-6-24,91,78,67,76,72,67,100,84,53,30.16,30.04,5,1,8,0.64
2012-6-25,93,77,67,78,72,67,100,86,54,30.09,29.88,4,0,7,0.39
2012-6-26,84,73,62,70,61,52,100,70,38,30.05,29.91,6,1,10,0.40
2012-6-27,85,68,54,65,60,54,100,78,45,30.16,30.05,3,0,5,0.00
2012-6-28,97,77,60,70,64,59,99,69,29,30.19,30.08,4,1,8,0.00
2012-6-29,100,88,70,76,65,54,89,49,30,30.08,29.98,6,2,12,0.00
2012-6-30,101,86,71,79,73,69,96,68,39,30.10,30.01,3,0,5,0.00
2012-7-1,103,86,72,78,71,63,96,64,31,30.19,30.04,4,1,8,0.00
2012-7-2,94,79,67,74,70,66,100,76,45,30.37,30.13,7,2,17,0.42
2012-7-3,94,78,68,75,72,67,100,82,50,30.19,30.11,5,1,8,0.01
2012-7-4,95,81,71,77,72,68,95,75,48,30.16,30.10,8,1,15,0.44
2012-7-5,97,83,72,79,71,63,97,70,39,30.15,30.06,8,1,15,0.02
2012-7-6,94,80,67,76,69,64,94,71,45,30.16,30.09,4,1,6,0.02
2012-7-7,97,82,69,77,72,68,99,77,44,30.19,30.12,4,1,7,0.00
2012-7-8,98,84,72,77,73,70,96,72,45,30.16,30.03,5,1,8,0.00
2012-7-9,95,82,76,77,70,-100,96,74,48,30.12,30.04,5,1,8,0.00
2012-7-10,85,76,72,78,74,72,100,94,72,30.20,30.10,5,0,7,0.26
2012-7-11,81,71,69,76,71,69,100,99,81,30.29,30.15,6,0,8,1.57
2012-7-12,73,69,66,72,69,66,100,98,94,30.32,30.23,4,0,5,0.27
2012-7-13,83,73,69,77,72,69,100,96,76,30.35,30.24,1,0,2,1.73
2012-7-14,88,76,71,77,73,71,100,91,59,30.37,30.27,5,1,8,0.22
2012-7-15,87,75,68,79,73,68,100,95,67,30.36,30.23,3,0,6,0.60
2012-7-16,92,77,70,77,72,70,100,88,55,30.28,30.12,3,1,7,1.28
2012-7-17,93,78,67,80,72,67,100,85,52,30.16,30.07,4,1,7,1.28
2012-7-18,93,77,69,76,72,69,100,87,55,30.16,30.08,3,0,5,1.98
2012-7-19,92,78,69,78,74,69,100,90,55,30.18,30.11,5,0,8,0.71
2012-7-20,86,76,70,76,73,70,100,93,68,30.15,30.06,4,0,9,0.83
2012-7-21,90,79,70,77,73,70,100,85,61,30.22,30.10,5,1,11,0.01
2012-7-22,93,81,72,78,74,71,97,82,54,30.34,30.22,4,1,7,0.12
2012-7-23,93,77,69,78,74,69,100,92,56,30.36,30.21,5,0,8,0.98
2012-7-24,95,83,73,78,74,71,100,75,47,30.22,30.08,5,2,14,0.02
2012-7-25,92,80,71,81,75,67,100,86,62,30.15,30.06,6,1,7,1.08
2012-7-26,95,83,72,78,75,72,100,80,52,30.10,29.97,4,1,9,0.02
2012-7-27,95,81,72,79,74,70,100,82,54,30.12,30.02,12,1,20,0.38
2012-7-28,94,82,72,80,74,70,100,82,47,30.16,30.09,6,1,12,0.40
2012-7-29,92,78,66,75,70,65,100,81,43,30.18,30.08,3,0,4,0.01
2012-7-30,92,77,68,76,71,68,100,83,49,30.16,30.07,4,1,5,0.40
2012-7-31,76,71,68,75,71,68,100,99,94,30.15,30.08,2,0,3,0.82
2012-8-1,91,77,66,78,72,66,100,87,57,30.10,30.01,5,1,6,0.01
2012-8-2,88,74,68,77,72,68,100,92,63,30.08,30.03,3,0,6,0.83
2012-8-3,86,82,75,79,76,74,98,85,69,30.18,30.12,3,0,5,0.00
2012-8-4,84,76,74,75,74,74,100,93,74,30.36,30.18,2,0,3,0.80
2012-8-5,88,78,70,78,74,70,100,88,64,30.38,30.26,7,1,10,0.00
2012-8-6,87,76,71,79,74,71,100,94,68,30.29,30.16,5,1,8,1.67
2012-8-7,82,75,72,78,74,72,100,97,85,30.20,30.11,2,0,3,0.49
2012-8-8,88,77,69,80,74,69,100,92,66,30.17,30.10,4,0,7,0.58
2012-8-9,69,69,68,69,69,68,100,100,100,30.03,30.02,0,0,0,1.50
2012-8-10,83,74,68,78,72,68,100,93,75,30.02,29.95,4,0,6,0.02
2012-8-11,84,74,69,75,70,-100,100,91,71,30.10,30.00,3,0,5,1.09
2012-8-12,85,73,62,71,67,62,100,83,56,30.18,30.10,4,0,5,0.01
2012-8-13,86,72,61,71,66,61,100,84,49,30.19,30.10,4,0,8,0.03
2012-8-14,85,74,64,74,70,64,100,88,67,30.14,30.01,6,1,8,0.00
2012-8-15,87,74,68,73,69,64,100,84,56,30.15,30.04,6,1,10,0.00
2012-8-16,87,73,62,70,66,62,100,80,49,30.19,30.11,4,1,6,0.00
2012-8-17,86,74,64,75,70,64,100,88,65,30.16,30.00,3,0,6,0.00
2012-8-18,81,72,65,74,70,65,100,94,72,30.10,29.99,4,0,5,0.03
2012-8-19,85,72,68,73,70,68,100,93,62,30.05,29.97,5,0,7,0.18
2012-8-20,85,72,64,70,66,61,100,85,46,30.13,30.01,3,0,4,0.22
2012-8-21,64,61,59,64,61,59,100,100,100,30.15,30.12,0,0,0,0.20
2012-8-22,83,74,63,73,69,63,100,84,62,30.29,30.20,3,1,5,0.22
2012-8-23,84,74,64,73,68,64,100,86,59,30.31,30.22,4,0,6,0.00
2012-8-24,84,72,63,72,68,63,100,87,59,30.31,30.22,4,0,6,0.00
2012-8-25,85,71,60,73,67,60,100,87,59,30.32,30.21,4,0,6,0.00
2012-8-26,88,73,61,75,68,61,100,86,58,30.33,30.22,4,0,6,0.00
2012-8-27,88,74,63,72,68,63,100,85,53,30.32,30.17,4,1,7,0.00
2012-8-28,84,73,66,79,71,66,100,94,73,30.19,30.10,3,0,4,0.02
2012-8-29,82,74,70,79,73,70,100,96,77,30.16,30.10,3,0,4,0.11
2012-8-30,83,75,69,77,73,69,100,93,77,30.32,30.14,5,0,8,0.03
2012-8-31,91,79,67,78,73,67,100,84,62,30.38,30.27,6,1,10,0.11
2012-9-1,96,80,71,79,74,71,100,82,46,30.32,30.19,4,1,6,0.00
2012-9-2,89,77,68,79,74,68,100,91,62,30.23,30.09,4,0,8,0.12
2012-9-3,83,74,71,79,74,71,100,98,82,30.16,30.08,3,0,4,0.20
2012-9-4,77,73,71,76,73,71,100,100,97,30.14,30.06,1,0,2,0.28
2012-9-5,85,76,72,76,74,72,100,92,73,30.11,30.02,4,1,9,0.05
2012-9-6,88,78,72,78,74,72,100,89,69,30.11,30.03,4,0,7,0.24
2012-9-7,89,75,66,76,71,66,100,91,62,30.14,30.01,4,0,5,0.00
2012-9-8,85,73,66,77,69,62,100,90,66,30.03,29.86,6,1,13,0.02
2012-9-9,81,69,58,63,59,56,96,72,48,30.16,29.99,5,1,8,0.02
2012-9-10,82,67,55,66,59,55,100,80,44,30.29,30.16,5,1,8,0.02
2012-9-11,78,68,61,68,63,59,100,84,61,30.45,30.30,3,0,6,0.00
2012-9-12,80,70,59,67,63,59,100,81,59,30.49,30.41,3,1,6,0.00
2012-9-18,71,69,66,71,68,63,100,95,81,29.99,29.84,7,1,12,1.61
2012-9-19,76,66,57,68,61,54,99,83,62,30.26,29.99,7,1,19,0.53
2012-9-20,77,66,56,68,62,56,100,89,63,30.31,30.18,4,1,7,1.40
2012-9-21,79,65,55,69,62,55,100,91,66,30.23,30.12,5,1,7,0.25
2012-9-22,85,73,61,70,65,54,100,78,53,30.15,30.04,8,2,20,0.00
2012-9-23,81,66,52,59,50,-100,97,65,40,30.28,30.15,7,2,12,0.00
2012-9-24,72,57,44,55,49,44,100,80,46,30.37,30.27,4,1,5,0.00
2012-9-25,75,54,46,64,51,46,100,92,66,30.37,30.32,5,1,11,0.00
2012-9-26,82,72,61,69,66,61,100,83,59,30.34,30.28,3,0,5,0.00
2012-9-27,83,68,55,70,63,55,100,86,52,30.35,30.22,4,0,9,0.00
2012-9-28,86,70,61,70,65,61,100,87,52,30.27,30.11,4,1,8,0.00
2012-9-29,76,67,64,71,66,64,100,97,83,30.16,30.01,1,0,2,0.20
2012-9-30,73,62,56,65,60,56,100,96,64,30.06,29.98,2,0,2,0.03
2012-10-1,62,61,60,62,61,60,100,100,100,30.03,29.96,4,0,7,0.53
2012-10-2,74,67,63,69,66,63,100,96,81,30.12,29.90,0,0,2,0.16
2012-10-3,77,66,60,68,64,60,100,94,70,30.34,30.11,4,0,6,0.34
2012-10-4,84,68,59,66,62,59,100,84,45,30.38,30.31,5,1,8,0.05
2012-10-5,80,65,53,65,59,53,100,86,54,30.37,30.16,5,0,8,0.01
2012-10-6,82,66,54,72,62,54,100,86,55,30.16,30.03,5,1,9,0.00
2012-10-7,62,58,53,60,57,52,100,96,86,30.25,30.09,4,1,7,0.00
2012-10-8,53,51,49,52,48,44,98,90,76,30.33,30.24,5,1,10,1.20
2012-10-9,57,52,49,54,51,48,100,96,85,30.31,30.21,2,0,2,1.20
2012-10-10,74,58,46,60,53,46,100,85,56,30.28,30.16,5,1,8,1.20
2012-10-11,68,56,44,56,50,44,100,81,57,30.43,30.28,5,1,12,0.00
2012-10-12,78,60,49,64,57,49,100,90,58,30.44,30.31,5,1,7,0.00
2012-10-13,68,57,49,56,51,45,100,83,59,30.61,30.44,5,1,7,0.00
2012-10-14,68,58,48,64,57,48,100,96,84,30.47,30.16,1,0,2,0.00
2012-10-15,76,65,58,68,59,47,100,82,45,30.16,29.92,9,2,17,0.78
2012-10-16,71,60,50,56,49,-100,100,72,47,30.11,30.01,5,1,9,0.01
2012-10-17,73,56,45,56,51,45,100,85,48,30.12,30.01,7,1,11,0.78
2012-10-18,66,56,48,64,56,48,100,99,92,30.03,29.91,2,0,2,0.00
2012-10-19,72,59,45,56,47,40,100,68,33,29.93,29.84,6,2,13,0.00
2012-10-20,61,49,42,52,46,42,100,91,61,30.09,29.90,6,1,13,0.00
2012-10-21,72,55,44,57,50,44,100,86,50,30.29,30.09,4,0,6,0.00
2012-10-22,79,58,45,59,52,45,100,83,43,30.37,30.27,4,0,6,0.00
2012-10-23,79,61,48,62,55,48,100,82,46,30.34,30.22,6,1,10,0.00
2012-10-24,82,62,48,62,55,48,100,81,44,30.34,30.21,5,1,7,0.00
2012-10-25,77,61,49,63,57,49,100,87,60,30.30,30.21,4,0,6,0.00
2012-10-26,78,66,58,64,61,58,100,83,55,30.23,30.09,5,1,8,0.00
2012-10-27,71,65,58,62,59,53,90,82,70,30.11,29.92,5,2,10,0.00
2012-10-28,68,56,47,54,49,39,92,78,58,29.92,29.81,14,5,23,0.02
2012-10-29,49,46,44,40,37,35,76,71,63,29.84,29.70,15,10,29,0.01
2012-10-30,47,44,42,39,36,33,79,72,62,29.81,29.61,9,4,17,0.02
2012-10-31,64,51,45,41,37,27,76,60,36,29.92,29.77,13,3,24,0.00
2012-11-1,63,50,37,36,31,23,80,50,26,30.04,29.91,10,3,21,0.00
2012-11-2,70,51,35,46,37,30,87,63,40,30.11,29.96,8,2,12,0.00
2012-11-3,71,56,41,48,40,33,89,58,33,30.21,30.11,8,2,15,0.00
2012-11-4,66,55,44,50,47,44,100,77,53,30.14,30.05,6,1,10,0.00
2012-11-5,63,51,43,45,41,35,92,70,38,30.20,30.11,7,1,10,0.00
2012-11-6,48,44,41,42,39,37,94,84,67,30.21,30.07,5,1,8,0.01
2012-11-7,49,44,40,47,42,39,100,93,76,30.09,29.98,7,1,15,0.05
2012-11-8,64,53,45,42,36,32,80,56,33,30.28,30.09,12,5,21,0.01
2012-11-9,73,54,41,41,36,29,83,53,20,30.39,30.28,5,2,9,0.00
2012-11-10,75,53,38,44,39,33,96,66,23,30.50,30.37,6,1,9,0.00
2012-11-11,70,54,35,54,46,35,100,78,52,30.59,30.49,8,1,14,0.00
2012-11-12,69,62,52,64,60,51,100,92,80,30.52,30.30,6,1,10,0.07
2012-11-13,64,50,36,51,41,35,96,73,43,30.51,30.32,8,2,21,0.07
2012-11-14,50,41,31,37,33,-100,99,75,56,30.60,30.45,9,2,14,0.00
2012-11-15,54,49,43,43,39,35,82,70,62,30.47,30.34,6,1,8,0.23
2012-11-16,58,47,36,40,37,33,96,71,38,30.50,30.37,7,1,9,0.00
2012-11-17,58,45,31,37,33,29,100,69,36,30.60,30.49,9,2,13,0.00
2012-11-18,60,52,47,46,40,29,76,66,48,30.58,30.48,10,2,17,0.00
2012-11-19,62,55,50,53,49,42,94,81,70,30.49,30.33,5,1,7,0.00
2012-11-23,57,53,50,43,40,37,65,60,51,30.13,30.11,8,5,13,0.00
2012-11-24,52,44,38,38,27,20,70,52,32,30.23,30.12,11,6,19,0.00
2012-11-25,57,42,31,29,26,22,83,55,32,30.28,30.14,8,2,11,0.00
2012-11-26,67,50,32,36,30,24,82,51,25,30.31,30.19,7,2,11,0.00
2012-11-27,60,53,48,48,43,33,81,68,47,30.35,30.19,4,0,6,0.00
2012-11-28,60,49,38,46,32,20,89,56,21,30.50,30.34,11,2,14,0.00
2012-11-29,59,43,30,44,34,25,98,74,49,30.58,30.45,7,1,11,0.00
2012-11-30,65,45,29,47,39,29,100,83,48,30.50,30.37,8,1,11,0.00
2012-12-1,68,53,38,51,46,38,100,80,53,30.48,30.42,6,1,10,0.00
2012-12-2,70,57,43,57,51,42,100,83,57,30.49,30.37,9,2,17,0.00
2012-12-3,75,59,47,55,51,39,99,78,49,30.44,30.35,6,1,10,0.00
2012-12-4,74,59,46,56,51,46,100,78,47,30.44,30.31,6,1,16,0.00
2012-12-5,67,60,54,60,55,49,94,85,71,30.33,30.24,4,1,11,0.00
2012-12-6,55,51,49,50,39,-100,82,65,51,30.41,30.31,7,2,11,0.00
2012-12-7,59,50,43,52,46,40,100,85,72,30.33,30.13,4,0,7,0.00
2012-12-8,70,53,39,59,50,39,100,90,63,30.18,30.09,4,1,8,0.00
2012-12-9,69,59,51,61,57,51,100,92,73,30.22,30.11,7,1,11,0.00
2012-12-10,63,60,58,62,60,50,100,98,69,30.12,29.82,7,1,11,0.14
2012-12-11,61,48,40,60,42,37,96,79,58,30.25,29.85,8,2,14,0.01
2012-12-12,48,44,39,40,38,37,96,82,72,30.43,30.25,6,2,9,0.00
2012-12-13,54,44,31,37,30,26,87,59,38,30.50,30.38,9,2,15,0.00
2012-12-14,60,41,28,39,32,26,94,75,42,30.49,30.35,6,1,8,0.00
2012-12-15,59,46,36,43,38,33,95,78,52,30.37,30.19,4,0,6,0.00
2012-12-16,56,52,46,54,48,41,100,88,70,30.19,30.04,3,0,8,0.45
2012-12-17,57,54,50,56,53,50,100,99,95,30.04,29.79,3,0,8,0.51
2012-12-18,58,51,39,54,41,32,100,73,37,30.06,29.79,13,2,20,0.01
2012-12-19,67,50,34,48,40,32,97,73,42,30.21,30.05,6,1,9,0.00
2012-12-20,49,44,39,48,43,33,100,97,68,30.21,29.70,7,1,14,1.22
2012-12-21,45,41,37,35,29,23,81,62,49,30.05,29.78,12,4,27,0.02
2012-12-22,55,44,35,23,16,3,59,35,15,30.23,30.01,16,6,28,0.00
2012-12-23,60,46,34,38,25,15,67,44,23,30.25,30.13,9,2,13,0.00
2012-12-24,52,46,43,48,44,32,100,91,58,30.15,29.98,6,1,10,0.31
2012-12-25,50,44,40,47,44,40,100,99,88,30.21,30.04,6,1,10,0.20
2012-12-26,48,45,39,47,44,32,100,95,73,30.07,29.60,10,3,20,2.79
2012-12-27,48,40,36,35,32,31,84,76,60,30.19,29.88,13,6,35,0.01
2012-12-28,44,36,29,37,33,29,100,87,68,30.28,30.09,3,0,4,0.03
2012-12-29,54,40,35,45,36,26,100,85,56,30.19,29.87,12,3,20,0.20
2012-12-30,49,38,31,28,25,20,80,61,32,30.52,30.19,11,4,24,0.01
2012-12-31,57,42,28,32,28,23,93,61,32,30.49,30.22,6,1,14,0.00
2013-1-1,50,48,44,49,42,29,100,82,44,30.23,30.07,6,1,13,0.45